Vorticity
12 9 9 7 6 6 8 4 10 4 9 5 7 14 8 8 7 10 12 18 1 7 3 3 2 1 11 5 7 9 8 8 15 8 14 7 1 5 6 4 16 13 13
4 13 9 6 8 8 4 5 10 5 10 6 5 10 8 10 9 9 9 14 -12 7 -0 17 11 10 15 16 13 12 12 12 11 7 2 3 4 5 4 2 2 4 5
9 9 8 6 7 5 3 5 8 5 10 9 5 7 10 8 6 6 13 10 13 7 10 18 8 11 6 5 5 4 4 3 3 3 3 5 9 9 8 9 9 8 7
14 14 9 8 7 4 5 7 5 7 11 12 6 5 7 9 10 11 13 8 7 8 6 5 4 4 3 3 7 9 8 9 8 8 6 4 5 6 6 6 4 3 5
18 13 10 7 9 3 7 3 7 7 10 11 9 6 5 5 6 3 3 6 7 9 9 8 8 8 7 6 5 4 3 3 3 3 4 4 6 3 3 2 7 6 4
19 15 10 4 6 4 5 3 4 6 7 8 11 9 6 7 4 3 3 2 1 1 2 2 2 3 3 3 4 4 3 3 4 5 5 6 5 3 7 5 3 6 3
14 15 10 7 4 3 1 -2 11 4 4 3 9 9 8 6 5 5 4 3 3 1 4 4 3 5 4 4 4 4 6 5 6 6 5 3 4 4 3 -5 -3 4 1
17 17 11 9 3 2 3 -0 5 10 6 5 4 6 12 6 5 5 2 6 0 2 2 8 15 15 8 4 4 2 4 5 5 7 11 11 9 12 0 8 8 -1 3
19 18 14 10 9 5 4 6 -1 1 7 -1 4 10 6 1 10 5 7 7 6 4 18 10 5 7 10 10 14 14 8 8 4 11 3 3 5 5 6 8 7 6 5
13 15 14 15 17 7 18 7 11 1 5 7 14 6 6 9 7 15 21 2 2 11 7 6 6 -6 9 8 2 20 -1 6 -1 -11 -1 6 1 3 5 6 8 7 7
5 11 16 29 5 -2 -2 12 11 -4 13 46 -16 -10 -12 18 9 20 31 57 -9 20 9 5 -3 1 6 4 4 2 1 4 5 3 5 5 6 7 6 6 7 7 7
51 41 -17 -5 9 43 1 58 31 12 -64 35 -22 24 21 -3 35 6 27 -7 18 5 1 2 7 -2 -0 3 3 4 6 4 6 6 7 6 6 7 7 6 6 6 6
10 21 46 66 26 1 -18 68 19 -23 5 3 44 -2 -17 -3 46 -8 3 4 -46 19 11 -1 2 3 3 7 7 9 8 13 13 10 7 6 6 4 4 5 5 6 7
9 16 19 6 18 42 71 14 16 31 25 -15 6 -10 -11 30 -6 -22 10 5 -10 32 14 5 5 3 7 10 3 1 7 4 5 4 4 4 7 10 7 7 8 8 6
5 6 12 20 16 16 9 16 8 4 17 35 56 40 50 44 43 40 38 35 48 40 35 11 21 19 21 21 18 7 9 7 6 8 10 9 8 9 8 6 4 5 6
3 -2 0 3 8 9 3 9 10 11 13 6 5 5 12 15 25 19 12 11 14 16 14 12 13 9 9 9 10 7 6 8 10 10 8 6 5 4 3 5 5 5 6
-3 5 -1 8 4 6 7 8 7 6 3 6 8 6 4 4 4 10 10 7 10 12 10 10 8 6 7 7 8 8 6 7 7 6 6 5 4 4 4 5 7 10 11
15 15 9 8 14 6 10 7 3 8 7 7 4 5 5 3 4 5 6 6 6 5 6 6 6 7 7 5 3 2 1 2 2 3 4 5 6 6 6 10 10 11 15
15 15 14 12 10 5 5 6 7 9 7 9 6 6 7 9 9 8 9 6 8 8 8 8 5 3 2 2 1 1 3 4 6 8 9 8 7 9 14 16 19 20 17
6 6 6 6 7 8 10 10 9 8 6 -0 1 3 3 5 5 3 1 3 5 1 -2 -1 1 3 4 6 8 8 8 7 9 9 12 18 19 17 14 14 14 14 13
10 10 8 7 8 9 9 7 5 3 5 5 4 4 4 3 5 3 3 4 5 6 8 10 11 9 9 9 9 11 13 18 18 15 14 8 8 11 12 11 9 8 8
5 5 6 7 6 6 7 8 9 9 8 8 8 8 8 7 8 10 10 9 10 11 11 11 11 13 13 13 13 10 8 9 13 15 15 13 13 11 10 9 8 8 10
10 8 7 8 9 10 12 11 11 12 12 12 13 14 15 15 15 16 16 16 17 17 17 18 19 18 17 15 13 11 9 7 7 7 7 8 9 9 9 10 10 11 11
11 10 10 9 9 9 10 13 14 12 11 10 9 10 9 8 8 8 9 8 8 7 7 7 7 7 7 8 9 9 10 10 10 10 10 11 12 12 12 12 13 14 14
11 10 10 9 9 8 6 5 6 7 7 8 8 8 8 9 9 9 9 9 9 8 9 9 9 8 10 10 10 11 11 11 11 12 12 13 14 14 14 14 16 19 21
10 10 10 9 9 9 9 9 8 8 8 7 7 8 7 7 7 7 8 8 8 9 9 9 10 11 11 12 13 13 14 15 16 17 18 19 19 21 22 22 23 22 21
Height
5656 5660 5664 5669 5672 5676 5682 5686 5687 5687 5687 5688 5687 5689 5688 5689 5689 5690 5691 5694 5697 5700 5703 5707 5710 5712 5715 5717 5718 5719 5720 5722 5726 5725 5726 5727 5730 5729 5727 5728 5727 5728 5730
5646 5651 5655 5659 5664 5667 5674 5678 5681 5682 5681 5682 5682 5684 5684 5685 5686 5687 5689 5691 5693 5695 5699 5701 5703 5705 5708 5710 5711 5712 5714 5715 5717 5718 5717 5719 5721 5721 5721 5722 5722 5722 5722
5637 5642 5646 5649 5655 5658 5665 5671 5674 5675 5676 5677 5677 5678 5679 5680 5682 5684 5686 5687 5689 5691 5694 5696 5698 5700 5701 5702 5704 5705 5707 5708 5711 5713 5712 5712 5713 5711 5711 5713 5713 5713 5713
5626 5632 5637 5640 5645 5649 5656 5662 5667 5669 5670 5670 5671 5672 5673 5675 5676 5678 5681 5683 5685 5687 5688 5690 5691 5693 5694 5695 5697 5699 5701 5703 5704 5705 5706 5704 5705 5703 5704 5705 5705 5704 5704
5617 5623 5628 5631 5636 5641 5647 5654 5659 5661 5662 5663 5664 5666 5669 5672 5673 5674 5675 5677 5679 5681 5682 5683 5685 5687 5687 5689 5691 5692 5692 5693 5693 5694 5696 5696 5698 5697 5696 5697 5696 5696 5695
5609 5614 5619 5623 5629 5634 5639 5645 5650 5653 5655 5655 5657 5660 5663 5665 5666 5667 5669 5671 5672 5672 5674 5676 5677 5678 5681 5681 5683 5684 5684 5683 5685 5684 5685 5687 5689 5688 5689 5688 5687 5686 5685
5598 5604 5609 5615 5620 5624 5630 5636 5640 5643 5644 5646 5648 5650 5654 5657 5658 5659 5660 5661 5663 5665 5667 5668 5669 5670 5672 5673 5673 5673 5674 5673 5674 5674 5674 5674 5675 5675 5676 5676 5673 5672 5671
5589 5594 5599 5605 5609 5613 5619 5625 5630 5633 5635 5637 5639 5641 5645 5648 5649 5650 5651 5652 5654 5654 5656 5658 5659 5660 5662 5662 5662 5662 5662 5663 5663 5663 5663 5662 5662 5662 5661 5660 5659 5657 5655
5579 5584 5590 5595 5600 5604 5609 5614 5617 5621 5624 5626 5629 5631 5633 5635 5636 5639 5639 5640 5642 5645 5646 5648 5649 5650 5651 5652 5651 5652 5652 5652 5652 5650 5651 5650 5649 5648 5647 5645 5643 5642 5639
5573 5577 5582 5587 5591 5595 5599 5602 5604 5608 5611 5610 5616 5618 5620 5622 5623 5623 5624 5629 5632 5633 5634 5635 5636 5640 5639 5640 5640 5638 5639 5640 5639 5639 5638 5637 5635 5633 5632 5630 5628 5625 5623
5566 5569 5572 5576 5583 5586 5589 5589 5592 5595 5598 5597 5602 5605 5606 5605 5608 5608 5609 5611 5618 5618 5620 5622 5621 5624 5625 5625 5627 5627 5626 5626 5625 5624 5623 5622 5620 5618 5616 5614 5612 5609 5607
5559 5560 5565 5568 5573 5571 5576 5575 5569 5578 5582 5584 5586 5587 5594 5596 5594 5596 5598 5603 5604 5605 5607 5606 5608 5610 5611 5610 5611 5611 5611 5610 5610 5609 5607 5606 5604 5602 5600 5598 5595 5592 5588
5555 5557 5557 5557 5561 5562 5562 5561 5564 5566 5570 5571 5574 5575 5579 5582 5583 5585 5588 5589 5589 5592 5592 5591 5592 5593 5594 5594 5594 5594 5594 5594 5592 5592 5590 5589 5587 5584 5582 5580 5576 5572 5569
5552 5551 5552 5551 5552 5551 5551 5552 5553 5554 5555 5556 5559 5560 5563 5566 5567 5568 5571 5572 5574 5575 5575 5574 5574 5576 5577 5576 5577 5577 5577 5578 5577 5576 5575 5572 5570 5567 5564 5560 5557 5554 5550
5544 5544 5544 5543 5543 5541 5542 5542 5542 5541 5543 5543 5545 5546 5548 5550 5551 5551 5552 5553 5555 5558 5558 5557 5558 5561 5562 5563 5563 5562 5562 5561 5560 5559 5557 5554 5552 5548 5545 5541 5538 5533 5529
5538 5538 5538 5538 5537 5536 5535 5535 5534 5535 5535 5534 5535 5536 5539 5541 5541 5540 5542 5543 5543 5542 5542 5544 5545 5547 5548 5549 5549 5549 5548 5546 5544 5541 5538 5536 5532 5529 5525 5520 5516 5512 5507
5529 5529 5528 5529 5528 5528 5528 5528 5528 5528 5528 5528 5529 5528 5528 5530 5529 5529 5529 5529 5530 5532 5532 5533 5534 5535 5535 5535 5534 5532 5531 5528 5526 5523 5519 5516 5512 5508 5504 5499 5495 5490 5485
5517 5516 5516 5516 5516 5516 5516 5517 5517 5517 5518 5519 5519 5519 5519 5518 5518 5518 5518 5518 5518 5518 5519 5520 5519 5519 5519 5518 5517 5514 5512 5509 5506 5503 5499 5495 5491 5487 5482 5477 5472 5468 5462
5507 5507 5507 5506 5506 5505 5506 5506 5506 5507 5507 5506 5506 5506 5506 5505 5504 5504 5504 5505 5506 5505 5504 5503 5502 5502 5501 5499 5497 5495 5492 5488 5485 5481 5478 5473 5470 5465 5460 5455 5451 5445 5441
5496 5495 5495 5494 5493 5493 5492 5491 5491 5491 5490 5490 5490 5490 5490 5490 5489 5489 5489 5489 5489 5488 5488 5486 5485 5483 5481 5479 5475 5473 5469 5466 5463 5459 5455 5451 5447 5443 5439 5434 5430 5426 5421
5481 5481 5480 5480 5480 5480 5480 5480 5479 5479 5477 5475 5475 5475 5474 5474 5473 5472 5471 5471 5469 5468 5467 5465 5462 5460 5458 5457 5453 5451 5448 5444 5440 5438 5434 5430 5427 5422 5418 5413 5410 5406 5401
5463 5463 5463 5462 5461 5461 5460 5459 5459 5459 5459 5458 5456 5456 5455 5455 5454 5452 5450 5449 5447 5445 5444 5442 5439 5437 5436 5433 5431 5428 5425 5422 5419 5416 5412 5408 5405 5400 5397 5394 5388 5384 5380
5445 5443 5443 5441 5442 5441 5440 5439 5438 5437 5437 5436 5435 5434 5433 5432 5432 5430 5428 5427 5425 5423 5422 5420 5417 5415 5413 5412 5409 5405 5403 5399 5396 5393 5390 5386 5383 5379 5376 5370 5367 5361 5358
5427 5426 5424 5422 5420 5420 5420 5419 5419 5419 5417 5416 5414 5413 5413 5411 5410 5409 5408 5407 5404 5402 5401 5398 5396 5394 5393 5389 5387 5383 5380 5377 5374 5371 5367 5364 5360 5356 5352 5348 5344 5339 5336
5406 5405 5403 5402 5400 5398 5397 5396 5396 5395 5395 5395 5395 5394 5392 5391 5389 5388 5386 5383 5382 5380 5379 5376 5374 5370 5370 5365 5363 5361 5357 5354 5350 5347 5344 5340 5337 5333 5330 5326 5322 5317 5314
5385 5383 5382 5380 5379 5377 5376 5375 5373 5371 5370 5369 5367 5366 5365 5365 5363 5363 5360 5358 5357 5355 5353 5352 5348 5346 5346 5340 5339 5335 5333 5330 5327 5324 5320 5317 5314 5311 5308 5304 5301 5298 5295